Location: *
(50.0228°S, 177.2688°W)
Time: 16:38:46
(UTC+00:00)

Cosmos 1844 Rocket - Pass Details

Date: 07 April 2020
Orbit: 824 x 845 km, 71.0° (Epoch: 03 June)

Event Time Altitude Azimuth Distance (km) Brightness Sun altitude
Rises 06:18:05 0° 331° (NNW) 3,377 6.2 -9.7°
Reaches altitude 10° 06:20:31 10° 330° (NNW) 2,447 5.5 -10.1°
Maximum altitude 06:26:09 85° 242° (WSW) 849 2.8 -11.0°
Drops below altitude 10° 06:31:50 10° 152° (SSE) 2,465 4.9 -11.9°
Sets 06:34:17 0° 151° (SSE) 3,403 5.6 -12.3°
